Tracking 25195 objects as of 20-Jan-2022
HD Live streaming from Space Station
objects crossing your sky now

STARLINK-1876

Track STARLINK-1876 now!
10-day predictions
STARLINK-1876 is classified as:


NORAD ID: 47161
Int'l Code: 2020-088AR
Perigee: 552.6 km
Apogee: 556.1 km
Inclination: 53.1 °
Period: 95.6 minutes
Semi major axis: 6925 km
RCS: Unknown
Launch date: November 25, 2020
Source: United States (US)
Launch site: AIR FORCE EASTERN TEST RANGE (AFETR)
aabbcc
Your satellite tracking list
Your tracking list is empty




NASA's NSSDC Master Catalog

Two Line Element Set (TLE):
1 47161U 20088AR  22020.05065870  .00002162  00000-0  16403-3 0  9992
2 47161  53.0534 228.6465 0002540  70.1103 290.0160 15.06396398 64690
Source of the keplerian elements: AFSPC